Regional Weather Roundup
Issued by NWS

Home | Current Version | Previous Version | Text Only | Print | Product List | Glossary On
Versions: 1 2 3 4 5 6 7 8 9 10 11 12 13 14 15 16 17 18 19 20 21 22 23 24 25 26 27 28 29 30 31 32 33 34 35 36 37 38 39 40 41 42 43 44 45 46 47 48 49 50
000
ASUS45 KPSR 251610
RWRAZ

ARIZONA HOURLY REGIONAL WEATHER ROUNDUP
NATIONAL WEATHER SERVICE PHOENIX AZ
900 AM MST TUE JUN 25 2019

NOTE: FAIR INDICATES FEW OR NO CLOUDS BELOW 12,000 FEET WITH NO
SIGNIFICANT WEATHER AND/OR OBSTRUCTIONS TO VISIBILITY.

AZZ001>003-036-251700-
NORTHWEST ARIZONA

CITY           SKY/WX    TMP DP  RH WIND       PRES   REMARKS
BULLHEAD CITY  MOSUNNY   88  27  11 SW6       29.76S
KINGMAN        SUNNY     86  25  11 E5        29.94S
$$

AZZ004>008-015-016-018-251700-
NORTH CENTRAL ARIZONA

CITY           SKY/WX    TMP DP  RH WIND       PRES   REMARKS
GRAND CANYON   SUNNY     72  20  14 MISG      30.18R
WILLIAMS       SUNNY     73  18  12 SW9G15    30.18
PRESCOTT       SUNNY     79  20  11 CALM      30.08R
FLAGSTAFF      SUNNY     70  18  13 SW8       30.21R
PAYSON         SUNNY     79  19  11 S5        30.11
PAGE           SUNNY     78  25  14 CALM      30.00S
$$

AZZ009>014-017-251700-
NORTHEAST ARIZONA

CITY           SKY/WX    TMP DP  RH WIND       PRES   REMARKS
WINSLOW        SUNNY     77  25  14 E5        30.08S
SAINT JOHNS    SUNNY     75  23  14 CALM      30.12F
WINDOW ROCK    SUNNY     72  25  17 CALM      30.19S
SHOW LOW       SUNNY     75  18  11 SW10      30.18S
$$

AZZ540-542>544-546-548-251700-
GREATER PHOENIX AREA

CITY           SKY/WX    TMP DP  RH WIND       PRES   REMARKS
PHOENIX        MOSUNNY   87  35  15 E7        29.83R
BUCKEYE        SUNNY     86  41  20 SE8       29.85
GLENDALE       SUNNY     90  37  15 CALM      29.85
DEER VALLEY    SUNNY     87  33  14 S7        29.86R
SCOTTSDALE     SUNNY     87  31  13 SE6       29.87R
MESA-FALCON    SUNNY     89  34  14 VRB6      29.86R
MESA-GATEWAY   SUNNY     86  36  16 SE8       29.88R
CHANDLER       SUNNY     86  37  17 CALM      29.85R
$$

AZZ539-553-251700-
SOUTHWEST MARICOPA COUNTY AND PINAL COUNTY

CITY           SKY/WX    TMP DP  RH WIND       PRES   REMARKS
CASA GRANDE    SUNNY     88  35  15 SE6       29.87R
$$

AZZ503-504-507>509-251700-
SOUTHEAST ARIZONA

CITY           SKY/WX    TMP DP  RH WIND       PRES   REMARKS
TUCSON         SUNNY     85  36  17 S5        29.96R
RYAN FIELD     SUNNY     84  34  16 NE3       29.95R
NOGALES        SUNNY     83  32  16 SW5       30.03S
DOUGLAS        SUNNY     81  24  12 S5        30.05S
SAFFORD        SUNNY     84  18   8 CALM      29.96S
$$

AZZ532-251700-
SOUTHWEST ARIZONA

CITY           SKY/WX    TMP DP  RH WIND       PRES   REMARKS
YUMA           MOSUNNY   88  31  13 SE14      29.78R
$$

CAZ041-043-047-048-061-525>527-560>570-251700-
SOUTHERN CALIFORNIA

CITY           SKY/WX    TMP DP  RH WIND       PRES   REMARKS
DOWNTOWN L.A.  CLOUDY    67  57  70 SE5       29.89R
L.A. AIRPORT   CLOUDY    65  56  72 S6        29.90R
SAN DIEGO      CLOUDY    65  56  72 VRB5      29.93R
BURBANK        CLOUDY    63  56  78 VRB5      29.89R
ONTARIO        CLOUDY    67  61  81 CALM      29.89R HAZE
RIVERSIDE      CLOUDY    63  57  81 CALM      29.90R HAZE
PALM SPRINGS   SUNNY     83  55  38 SE8       29.80R
EL CENTRO NAS  MOSUNNY   84  60  44 SE6       29.76S
IMPERIAL       MOSUNNY   85  60  42 SE7       29.74R
BLYTHE         SUNNY     86  45  23 S10       29.77R
NEEDLES        SUNNY     93  29  10 VRB3      29.78R
$$

NVZ020-UTZ003-251700-
SOUTHERN NEVADA-UTAH

CITY           SKY/WX    TMP DP  RH WIND       PRES   REMARKS
LAS VEGAS      MOSUNNY   88  35  15 VRB6      29.82R
SALT LAKE CITY CLOUDY    74  44  34 E7        29.90R
$$

NMZ009-TXZ055-251700-
NEW MEXICO-WEST TEXAS

CITY           SKY/WX    TMP DP  RH WIND       PRES   REMARKS
ALBUQUERQUE    SUNNY     73  26  17 CALM      30.12S
EL PASO        SUNNY     84  43  23 S5        30.01S
$$


........................KEY........................
SKY/WX - SKY CONDITION/WEATHER
TMP    - TEMPERATURE IN FAHRENHEIT
DP     - DEW POINT IN FAHRENHEIT
RH     - RELATIVE HUMIDITY IN PERCENT
WIND   - DIRECTION AND SPEED IN MILES PER HOUR (MPH)
VRB    - VARIABLE WIND DIRECTION
PRES   - MEAN SEA LEVEL PRESSURE IN INCHES OF MERCURY
         F - FALLING PRESSURE   R - RISING PRESSURE
         S - STEADY PRESSURE
VSB    - VISIBILITY IN MILES
HX     - HEAT INDEX IN FAHRENHEIT
WCI    - WIND CHILL INDEX IN FAHRENHEIT
TC     - TEMPERATURE IN CELSIUS WHICH IS ALSO KNOWN AS
         TEMPERATURE IN CENTIGRADE
AFB    - AIR FORCE BASE
         LUKE AFB IS LUKE AIR FORCE BASE
         DAVIS-MONTHAN IS DAVIS-MONTHAN AIR FORCE BASE
NAS    - NAVAL AIR STATION
         EL CENTRO NAS IS EL CENTRO NAVAL AIR STATION
N/A    - NOT AVAILABLE




USA.gov is the U.S. government's official web portal to all federal, state and local government web resources and services.